Regional Weather Roundup
Issued by NWS New Orleans/Baton Rouge, LA

Current Version | Previous Version | Text Only | Print | Product List | Glossary On
Versions: 1 2 3 4 5 6 7 8 9 10 11 12 13 14 15 16 17 18 19 20 21 22 23 24 25 26 27
000
ASUS44 KLIX 020711
RWRLIX
NEW ORLEANS REGIONAL WEATHER ROUNDUP
NATIONAL WEATHER SERVICE NEW ORLEANS LA
200 AM CDT SAT JUL 02 2016

NOTE: "FAIR" INDICATES FEW OR NO CLOUDS BELOW 12,000 FEET WITH NO
      SIGNIFICANT WEATHER AND/OR OBSTRUCTIONS TO VISIBILITY.
      SKY/WX - SKY CONDITION AND SIGNIFICANT WEATHER.
      TMP - AIR TEMPERATURE.     DP    - DEWPOINT TEMPERATURE.
      RH  - RELATIVE HUMIDITY.   PRES  - PRESSURE.
      HI  - HEAT INDEX.          WCI   - WIND CHILL INDEX.

*  THESE STATIONS ARE NOT NWS OR FAA STATIONS AND ARE NOT UNDER
   NWS QUALITY CONTROL.

LAZ038-040-048-061>063-065>067-069-020800-
SOUTHEAST LOUISIANA

CITY           SKY/WX    TMP DP  RH WIND       PRES   REMARKS
N.O. AUDUBON     N/A     82  78  89 MISG        N/A
N.O. INTL ARPT PTCLDY    83  78  85 SW8       30.00F
N.O. LAKEFRONT CLEAR     84  77  79 SW10      30.01F
N.O. DOWNTOWN*   N/A     85  78  80 VRB6      30.01F HX  96
RESERVE*         N/A     80  77  91 CALM      30.01F
SLIDELL        CLEAR     77  75  93 CALM      29.99F
BATON ROUGE    CLEAR     75  71  87 CALM      30.00F
BOOTHVILLE     CLEAR     80  76  87 CALM      30.01F
BELLE CHASSE   CLEAR     77  75  93 CALM      30.00F
BOGALUSA*        N/A     75  71  86 CALM      30.02F
GALLIANO*      SUNNY     70  69  96 CALM      30.01F FOG
NEW ROADS*       N/A     74  72  92 CALM      30.01S
GONZALES*        N/A     75  74  96 S3        30.00F
HAMMOND*       CLEAR     75  72  88 CALM      30.00F
HOUMA*         FOG       76  76 100 CALM      30.01F VSB 1/4
PORT FOURCHON* SUNNY     84  75  74 CALM      30.01F

$$

MSZ070-080>082-020800-
SOUTHERN MISSISSIPPI

CITY           SKY/WX    TMP DP  RH WIND       PRES   REMARKS
MCCOMB         CLEAR     74  69  85 CALM      30.02F
GULFPORT       CLEAR     79  76  90 CALM      29.99F
BILOXI         CLEAR     82  80  94 SW3       29.99F
PASCAGOULA     CLEAR     74  72  93 CALM      30.00F FOG

$$

COASTAL OBSERVATIONS
LAKE AND NEARSHORE STATIONS

STATION/POSITION TIME  TEMP    WIND        PRES    WAVE
                       AIR SEA DIR/SP/G            HT/PER
                 (UTC) (F)     (DEG/KT/KT) (MB)    (FT/S)
PASCAGOULA       0600   86                 1015.8
WAVELAND YACHT   0600   82 88              1016.3
GRAND ISLE       0600   84 90              1016.7
SOUTHWEST PASS   0600          210/  2/  4   N/A
NEW CANAL        0600   84 89              1015.8
SHELL BEACH      0600   83 89              1016.5

OFFSHORE STATIONS

STATION/POSITION TIME  TEMP    WIND        PRES    WAVE
                       AIR SEA DIR/SP/G            HT/PER
                 (UTC) (F)     (DEG/KT/KT) (MB)    (FT/S)
64 S DAUPHIN ISL 0600   84 86  270/  2/  4 1016.3

$$





USA.gov is the U.S. government's official web portal to all federal, state and local government web resources and services.